星链-5169 (STARLINK-5169 )

导读 | 星芒AI

STARLINK-5169 是 SpaceX Starlink 卫星互联网项目中的一颗低轨通信卫星。该卫星属于 Starlink 任务的第五批部署,旨在为全球用户提供高速互联网服务。它运行在约 550 公里的近地轨道,设计寿命数年,具备自动避障功能,以减少与其他卫星或太空碎片的碰撞风险。STARLINK-5169 与其他 Starlink 卫星共同构建全球覆盖的卫星网络,提升偏远地区的网络接入能力。

基本信息
目录编号:
54060
目录名称:
STARLINK-5169
国际标识:
2022-136K
轨道中心:
EARTH
卫星名称:
星链-5169
卫星全名:
星链-5169 (STARLINK-5169 )
卫星状态:
在轨 (已飞行1111 天)
发射日期:
2022-10-20 UTC
国别 :
美国 (US)
星等 :
--
轨道信息
数据来源 国际轨道数据 AOE轨道数据
星历时间 2025-11-04T07:50:21+0800
22小时前
查看轨道信息
2025-11-01T20:00:00+0800
3天前
查看轨道信息
半长轴 6917.862km 6917.933km
偏心率 0.0001389 0.0001905
轨道倾角 53.215° 53.215°
近地点辐角 87.025° 80.175°
升交点赤经 158.049° 169.246°
平近点角 273.090° 49.411°
近地点 538.766km 538.48km
远地点 540.688km 541.116km
周期 95.437分钟 95.439分钟
每日圈数 15.088462 15.08823
详细信息
固有亮度:
5
最大亮度:
2.5
卫星平台:
Starlink v1.5
覆盖范围:
全球
运营商:
太空探索技术公司
运营商所在国:
美国
制造商(研发单位):
太空探索技术公司
制造商所在国:
美国
使用方式:
暂无
卫星简介
星链(Starlink)计划是由太空探索技术公司(SpaceX)提出的一个巨型低轨卫星互联网星座项目,计划在2019年至2024年间在太空搭建由约1.2万颗卫星组成的“星链”网络,其中1584颗将部署在地球上空550千米处的近地轨道,并从2020年开始工作。该卫星仍在工作。
2D轨道图
3D轨道图
轨道高度分析图
轨道倾角分析图
轨道综合分析图
查看轨道综合分析图